STARLINK-36326, 68519

Orbit data source: Space-Track

STARLINK-36326, 68519 is a payload satellite owned by SpaceX/Seattle (US) in LEO that was launched on Mon, 30 Mar 2026 UTC via an FALCON 9 launch vehicle from the Air Force Eastern Test Range (AFETR). Payload-class satellites include a variety of spacecraft equipped with specific instruments for various scientific and technological missions. These include communications satellites like Starlink; space stations such as the ISS; scientific satellites like the Hubble; Earth observation satellites from companies like Planet Labs, Umbra, and HawkEye 360; GPS; miniature CubeSats for education and research; and military/defense satellites.

Loading next visibility...
Identifier
68519, 2026-068M
Orbit
LEO
Country
Flag of USUS
Related business
Manufacturer
SpaceX/Seattle
Mission
Operational spacecraft
Bus & Motor
STARLINK V2MO, Unknown motor
Mass
575 kg wet, ~530 kg dry
Launch date (UTC)
2026-03-30 (3 months ago)
Launch vehicle
FALCON 9
Launch site
Air Force Eastern Test Range (AFETR)
Object type
Payload
Rocket body
Debris
Shape & HBR
Unknown shape, 2.3 m
Radar Cross Section
Large (>1 m²)

Expand to show TLE details & history
Last TLE update: 19 hours ago

TLE from 19 hours ago
0 STARLINK-36326
1 68519U 26068M   26171.04249400  .00035269  00000-0  10495-2 0  9997
2 68519  53.1577  11.8639 0001067  75.9443 284.1678 15.34417088 12643
Epoch: 2026-06-20T01:01Z
TLE epoch observation values (Epoch: 2026-06-20T01:01:11.481Z)
Latitude
-0.00004°
Longitude
88.30324°
Altitude
463.375 km
Speed
7.636 km/s
True Right ascension
00h 47m 27s
True Declination
0° 00' 00"
Sunlit
Object was in daylight at epoch
Visualization orbit readout
Latitude
Unknown
Longitude
Unknown
Altitude
Unknown
Speed
Unknown
Apparent Right ascension
Unknown
Apparent Declination
Unknown
Sunlit
N/A
Visualization observer readout
Local Sidereal Time
07:20:57
Azimuth
Unknown
Elevation
Unknown
Doppler factor
Unknown
Orbital elements
Apogee altitude
463.64 km
Perigee altitude
462.18 km
Semi-major axis
6,841.047 km
Eccentricity
0.00011
Inclination
53.1577°
RAAN
11.8639°
Arg. of periapsis
75.9443°
True anomaly
284.15594°
Mean anomaly
284.1678°
Eccentric anomaly
284.16187°
Mean motion
3.83583 °/min
Orbital period
93.85 mins
BSTAR
0.0010495
Loading maneuver chart data...
Computing Atmospheric mass density...
Loading historical data...
Loading historical data...
Loading historical data...
Loading historical data...
Loading historical data...
Loading historical data...
Loading historical data...

Documentation

Showing up to 5 results
|